Weather Roundup
Issued by NWS Springfield, MO

Home | Current Version | Previous Version | Text Only | Print | Product List | Glossary On
Versions: 1 2 3 4 5 6 7 8 9 10 11 12 13 14 15 16 17 18 19 20 21 22 23 24 25 26 27 28 29 30 31 32 33 34 35 36 37 38 39 40 41 42 43 44 45 46 47 48 49 50
000
NZUS99 KSGF 301959
HRRSGF

HOURLY WEATHER
NATIONAL WEATHER SERVICE SPRINGFIELD MO
300 PM CDT SAT AUG 30 2014

......SGF CWA......

CITY           SKY/WX    TMP DP  RH WIND       PRES   REMARKS
SPRINGFIELD    MOSUNNY   89  65  44 SW10      29.92F HX  91
JOPLIN         MOSUNNY   92  63  38 VRB3      29.91F HX  93
WEST PLAINS    PTSUNNY   81  67  62 S10       29.98F
ROLLA          TSTM      72  68  87 NE5       29.94F
OSAGE BEACH    MOSUNNY   84  66  54 S8        29.91F
BRANSON        PTSUNNY   90  68  48 W7        29.96F HX  93

......SURROUNDING SGF CWA......

CITY           SKY/WX    TMP DP  RH WIND       PRES   REMARKS
CHANUTE        SUNNY     92  58  31 E3        29.91F HX  91
PARSONS        MOSUNNY   94  64  37 VRB3      29.92F HX  95
COFFEYVILLE    SUNNY     92  62  36 VRB3      29.90F HX  92
EMPORIA        SUNNY     90  59  35 VRB3      29.92F
HARRISON AR    MOSUNNY   86  68  54 W9        29.96F
NEAR YELLVILLE CLOUDY    81  64  57 NE8G18    29.96F THUNDER

......KANSAS AND MISSOURI......

CITY           SKY/WX    TMP DP  RH WIND       PRES   REMARKS
KANSAS CTY INT MOSUNNY   85  68  56 W3        29.92F
DOWNTOWN KC    SUNNY     88  67  49 CALM      29.90F HX  91
COLUMBIA       MOSUNNY   89  67  47 W7        29.90F HX  92
SEDALIA        MOSUNNY   89  67  47 SW12      29.91F HX  92
ST JOSEPH      SUNNY     85  68  56 NW6       29.91F
ST LOUIS       PTSUNNY   87  72  60 S6        29.92F HX  93
SPIRIT OF STL  CLOUDY    83  72  69 S7        29.90F
KIRKSVILLE     SUNNY     84  67  56 W6        29.92F
WICHITA        MOSUNNY   92  54  27 NW6       29.92F HX  90
TOPEKA         MOSUNNY   89  66  46 W7        29.91F HX  91
OLATHE         MOSUNNY   85  65  51 VRB5      29.92F

......TENNESSEE......

CITY           SKY/WX    TMP DP  RH WIND       PRES   REMARKS
MEMPHIS        CLOUDY    79  73  82 SW3       30.02F
NASHVILLE      CLOUDY    81  72  74 N9        30.06F

......ARKANSAS.......

CITY           SKY/WX    TMP DP  RH WIND       PRES   REMARKS
FAYETTEVILLE   MOSUNNY   81  71  71 SW10      29.97F
FT SMITH       LGT RAIN  82  72  71 E5        29.93F
LITTLE ROCK    CLOUDY    85  70  60 SE14      29.97F

......OKLAHOMA.......

CITY           SKY/WX    TMP DP  RH WIND       PRES   REMARKS
TULSA          MOSUNNY   95  63  34 NE6       29.87F HX  96
PONCA CITY     SUNNY     90  60  36 W3        29.91F
MCALESTER      MOSUNNY   92  70  48 VRB6      29.91F HX  97
OKLAHOMA CITY  MOSUNNY   95  55  26 CALM      29.92F HX  93

......IOWA............

CITY           SKY/WX    TMP DP  RH WIND       PRES   REMARKS
DES MOINES     MOSUNNY   83  68  60 W9        29.88F
QUAD CITIES    PTSUNNY   80  67  64 W9        29.87F

......ILLINOIS........

CITY           SKY/WX    TMP DP  RH WIND       PRES   REMARKS
QUINCY         MOSUNNY   85  71  63 W12       29.89F HX  90
CHICAGO        PTSUNNY   81  64  56 W20G31    29.84F



USA.gov is the U.S. government's official web portal to all federal, state and local government web resources and services.